TimeCDT,TemperatureF,Dew PointF,Humidity,Sea Level PressureIn,VisibilityMPH,Wind Direction,Wind SpeedMPH,Gust SpeedMPH,PrecipitationIn,Events,Conditions,WindDirDegrees,DateUTC
12:15 AM,44.1,43.5,98,30.23,10.0,Calm,Calm,-,N/A,,Clear,0,2011-10-04 05:15:00
12:35 AM,43.3,42.8,98,30.23,10.0,Calm,Calm,-,N/A,,Clear,0,2011-10-04 05:35:00
12:55 AM,42.8,42.1,97,30.24,10.0,Calm,Calm,-,N/A,,Clear,0,2011-10-04 05:55:00
1:15 AM,42.6,41.9,97,30.24,10.0,Calm,Calm,-,N/A,,Clear,0,2011-10-04 06:15:00
1:35 AM,42.3,41.5,97,30.23,10.0,Calm,Calm,-,N/A,,Clear,0,2011-10-04 06:35:00
1:55 AM,42.3,41.5,97,30.24,10.0,Calm,Calm,-,N/A,,Clear,0,2011-10-04 06:55:00
2:15 AM,42.6,41.5,96,30.24,10.0,Calm,Calm,-,N/A,,Clear,0,2011-10-04 07:15:00
2:35 AM,42.4,41.4,96,30.24,10.0,Calm,Calm,-,N/A,,Clear,0,2011-10-04 07:35:00
3:35 AM,41.4,40.8,98,30.25,10.0,Calm,Calm,-,N/A,,Clear,0,2011-10-04 08:35:00
4:15 AM,41.0,40.6,99,30.25,10.0,Calm,Calm,-,N/A,,Clear,0,2011-10-04 09:15:00
4:35 AM,41.2,40.6,98,30.25,10.0,Calm,Calm,-,N/A,,Clear,0,2011-10-04 09:35:00
4:55 AM,40.5,40.1,99,30.25,10.0,Calm,Calm,-,N/A,,Clear,0,2011-10-04 09:55:00
5:15 AM,40.6,39.9,97,30.26,10.0,Calm,Calm,-,N/A,,Clear,0,2011-10-04 10:15:00
5:35 AM,39.6,39.2,99,30.25,10.0,Calm,Calm,-,N/A,,Clear,0,2011-10-04 10:35:00
5:55 AM,39.2,39.0,99,30.26,10.0,Calm,Calm,-,N/A,,Clear,0,2011-10-04 10:55:00
6:15 AM,38.8,38.5,99,30.25,10.0,Calm,Calm,-,N/A,,Clear,0,2011-10-04 11:15:00
6:35 AM,38.8,38.5,99,30.25,10.0,Calm,Calm,-,N/A,,Clear,0,2011-10-04 11:35:00
7:15 AM,38.5,38.1,99,30.27,10.0,Calm,Calm,-,N/A,,Clear,0,2011-10-04 12:15:00
7:35 AM,38.7,38.3,99,30.27,10.0,Calm,Calm,-,N/A,,Clear,0,2011-10-04 12:35:00
7:55 AM,40.5,39.9,98,30.27,10.0,Calm,Calm,-,N/A,,Clear,0,2011-10-04 12:55:00
8:15 AM,43.5,41.9,94,30.27,10.0,Calm,Calm,-,N/A,,Clear,0,2011-10-04 13:15:00
8:35 AM,46.2,44.1,92,30.27,10.0,Calm,Calm,-,N/A,,Clear,0,2011-10-04 13:35:00
9:15 AM,53.4,48.6,84,30.28,10.0,Calm,Calm,-,N/A,,Clear,0,2011-10-04 14:15:00
9:35 AM,56.3,48.9,76,30.28,10.0,Calm,Calm,-,N/A,,Clear,0,2011-10-04 14:35:00
10:15 AM,61.5,49.5,65,30.27,10.0,Calm,Calm,-,N/A,,Clear,0,2011-10-04 15:15:00
10:35 AM,64.2,49.5,59,30.27,10.0,Calm,Calm,-,N/A,,Clear,0,2011-10-04 15:35:00
10:55 AM,66.7,49.3,53,30.27,10.0,SSE,3.5,-,N/A,,Clear,150,2011-10-04 15:55:00
11:35 AM,70.5,48.2,45,30.26,10.0,South,5.8,-,N/A,,Clear,190,2011-10-04 16:35:00
11:55 AM,71.8,48.2,43,30.25,10.0,SSW,5.8,-,N/A,,Clear,200,2011-10-04 16:55:00
12:15 PM,72.9,48.0,41,30.25,10.0,South,6.9,-,N/A,,Clear,180,2011-10-04 17:15:00
12:35 PM,74.1,48.2,40,30.24,10.0,SSW,5.8,-,N/A,,Clear,200,2011-10-04 17:35:00
12:55 PM,75.0,47.3,37,30.23,10.0,SSE,8.1,-,N/A,,Clear,160,2011-10-04 17:55:00
1:15 PM,75.9,45.1,33,30.23,10.0,SSE,6.9,-,N/A,,Clear,160,2011-10-04 18:15:00
1:35 PM,76.3,44.4,32,30.22,10.0,SSE,6.9,-,N/A,,Clear,160,2011-10-04 18:35:00
2:15 PM,76.8,44.1,31,30.20,10.0,SSW,6.9,-,N/A,,Clear,210,2011-10-04 19:15:00
2:55 PM,77.9,45.0,31,30.19,10.0,SSW,8.1,-,N/A,,Clear,200,2011-10-04 19:55:00
3:15 PM,77.9,43.9,30,30.19,10.0,South,9.2,-,N/A,,Clear,190,2011-10-04 20:15:00
3:35 PM,77.5,43.9,30,30.18,10.0,SSW,5.8,-,N/A,,Clear,200,2011-10-04 20:35:00
4:15 PM,77.5,43.9,30,30.17,10.0,SSW,6.9,-,N/A,,Clear,200,2011-10-04 21:15:00
4:35 PM,77.4,44.1,31,30.16,10.0,South,4.6,-,N/A,,Clear,170,2011-10-04 21:35:00
4:55 PM,77.2,45.0,32,30.16,10.0,SSE,8.1,-,N/A,,Clear,160,2011-10-04 21:55:00
5:15 PM,76.8,45.0,32,30.16,10.0,South,4.6,-,N/A,,Clear,180,2011-10-04 22:15:00
5:35 PM,75.9,45.5,34,30.16,10.0,South,3.5,-,N/A,,Clear,190,2011-10-04 22:35:00
5:55 PM,74.3,47.1,38,30.16,10.0,SSE,4.6,-,N/A,,Clear,160,2011-10-04 22:55:00
6:15 PM,71.8,49.3,45,30.16,10.0,SSE,3.5,-,N/A,,Clear,150,2011-10-04 23:15:00
6:35 PM,69.1,50.4,51,30.16,10.0,Calm,Calm,-,N/A,,Clear,0,2011-10-04 23:35:00
6:55 PM,64.8,51.3,62,30.16,10.0,Calm,Calm,-,N/A,,Clear,0,2011-10-04 23:55:00
7:15 PM,60.8,52.0,73,30.17,10.0,Calm,Calm,-,N/A,,Clear,0,2011-10-05 00:15:00
7:35 PM,59.0,51.4,76,30.17,10.0,East,4.6,-,N/A,,Clear,100,2011-10-05 00:35:00
7:55 PM,57.2,51.1,80,30.17,10.0,Calm,Calm,-,N/A,,Clear,0,2011-10-05 00:55:00
8:15 PM,55.8,50.4,82,30.17,10.0,East,4.6,-,N/A,,Clear,90,2011-10-05 01:15:00
8:35 PM,55.6,50.4,83,30.17,10.0,East,3.5,-,N/A,,Clear,90,2011-10-05 01:35:00
8:55 PM,54.7,50.0,84,30.17,10.0,Calm,Calm,-,N/A,,Clear,0,2011-10-05 01:55:00
9:35 PM,52.9,49.1,87,30.18,10.0,Calm,Calm,-,N/A,,Clear,0,2011-10-05 02:35:00
9:55 PM,51.6,48.2,88,30.18,10.0,Calm,Calm,-,N/A,,Clear,0,2011-10-05 02:55:00
10:15 PM,49.8,47.7,92,30.18,10.0,Calm,Calm,-,N/A,,Clear,0,2011-10-05 03:15:00
10:35 PM,49.3,47.3,93,30.17,10.0,Calm,Calm,-,N/A,,Clear,0,2011-10-05 03:35:00
10:55 PM,48.6,47.7,97,30.18,10.0,Calm,Calm,-,N/A,,Clear,0,2011-10-05 03:55:00
11:15 PM,47.3,46.4,97,30.17,10.0,Calm,Calm,-,N/A,,Clear,0,2011-10-05 04:15:00
11:35 PM,46.9,46.0,97,30.18,10.0,Calm,Calm,-,N/A,,Clear,0,2011-10-05 04:35:00
11:55 PM,46.4,45.7,97,30.18,10.0,Calm,Calm,-,N/A,,Clear,0,2011-10-05 04:55:00